Location: Montr�al
(45.5000°N, 73.5830°W)
Time: 03:13:26
(UTC-04:00)

Cosmos 1151 Rocket - Visible Passes

Search period start: 29 August 2016 00:00
Search period end: 08 September 2016 00:00
Orbit: 593 x 616 km, 82.5° (Epoch: 27 August)

Date Brightness Start Highest point End Pass type
(mag) Time Alt. Az. Time Alt. Az. Time Alt. Az.
29 Aug 5.4 01:51:13 20° NE 01:51:13 20° NE 01:52:56 10° NNE visible
29 Aug 4.8 03:28:05 22° NW 03:28:05 22° NW 03:30:19 10° NNW visible
30 Aug 5.2 02:04:10 24° NNE 02:04:10 24° NNE 02:06:03 10° NNE visible
30 Aug 5.2 03:41:02 15° NW 03:41:02 15° NW 03:42:33 10° NNW visible
31 Aug 5.1 02:17:06 25° N 02:17:06 25° N 02:19:00 10° N visible
01 Sep 5.2 02:30:02 23° N 02:30:02 23° N 02:31:48 10° N visible
02 Sep 6.0 01:06:06 11° NE 01:06:06 11° NE 01:06:25 10° NE visible
02 Sep 5.3 02:42:57 19° NNW 02:42:57 19° NNW 02:44:27 10° N visible
03 Sep 5.9 01:19:00 14° NNE 01:19:00 14° NNE 01:19:43 10° NNE visible
03 Sep 5.5 02:55:52 15° NNW 02:55:52 15° NNW 02:56:54 10° NNW visible
04 Sep 5.8 01:31:54 16° NNE 01:31:54 16° NNE 01:32:47 10° NNE visible
04 Sep 5.7 03:08:46 11° NW 03:08:46 11° NW 03:08:59 10° NNW visible
05 Sep 5.8 01:44:47 16° N 01:44:47 16° N 01:45:41 10° N visible
06 Sep 5.8 01:57:40 15° N 01:57:40 15° N 01:58:27 10° N visible
07 Sep 5.9 02:10:33 13° NNW 02:10:33 13° NNW 02:11:04 10° N visible
